Terminal Aerodrome Forecast
Issued by NWS Shreveport, LA

Home | Current Version | Previous Version | Text Only | Print | Product List | Glossary On
Versions: 1 2 3 4 5 6 7 8 9 10 11 12
000
FTUS44 KSHV 301738
TAFTXK
TAF
KTXK 301738Z 3018/3118 20008KT P6SM SCT060 SCT250
     FM310100 18005KT P6SM SCT150 SCT250
     FM311500 22005KT P6SM SCT250=

USA.gov is the U.S. government's official web portal to all federal, state and local government web resources and services.